UMU5410 ZUUU-ZSNJ

Flight info

Callsign UMU5410
Flight time 1h 51m
Altitude 33100
Route UBRAB B213 WHA R343 HFE
Aircraft B737/M-SDE2E3FGILRWXY/LB2

Departure

Time 2026-04-25 02:07
Airport Chengdu Shuangliu International Airport (ZUUU)

Arrival

Time 2026-04-25 03:59
Airport Nanjing Lukou International Airport (ZSNJ)
Time Latitude Longitude Altitude Speed Heading
2026-04-25 01:40 30.57015 103.94874 1637 ft 0 kts 111°
2026-04-25 01:55 30.57016 103.94873 1637 ft 1 kts 111°
2026-04-25 01:55 30.57021 103.94857 1637 ft 2 kts 111°
2026-04-25 01:56 30.57026 103.94841 1637 ft 2 kts 111°
2026-04-25 01:56 30.57032 103.94825 1637 ft 2 kts 111°
2026-04-25 01:56 30.57037 103.94808 1637 ft 2 kts 111°
2026-04-25 01:56 30.57042 103.94792 1637 ft 2 kts 111°
2026-04-25 01:57 30.57050 103.94765 1637 ft 2 kts 91°
2026-04-25 01:57 30.57048 103.94748 1637 ft 2 kts 76°
2026-04-25 01:57 30.57043 103.94732 1637 ft 2 kts 59°
2026-04-25 01:58 30.57034 103.94718 1637 ft 2 kts 43°
2026-04-25 01:58 30.57022 103.94708 1637 ft 1 kts 26°
2026-04-25 01:58 30.57016 103.94705 1637 ft 1 kts 21°
2026-04-25 01:58 30.57015 103.94704 1637 ft 0 kts 21°
2026-04-25 02:00 30.57024 103.94709 1637 ft 4 kts 21°
2026-04-25 02:00 30.57083 103.94737 1637 ft 12 kts 23°
2026-04-25 02:00 30.57150 103.94769 1637 ft 10 kts 22°
2026-04-25 02:00 30.57212 103.94795 1637 ft 7 kts
2026-04-25 02:01 30.57251 103.94795 1637 ft 4 kts 359°
2026-04-25 02:01 30.57281 103.94791 1637 ft 4 kts 335°
2026-04-25 02:01 30.57299 103.94760 1637 ft 7 kts 290°
2026-04-25 02:01 30.57312 103.94678 1637 ft 13 kts 249°
2026-04-25 02:02 30.57223 103.94624 1637 ft 14 kts 204°
2026-04-25 02:02 30.57132 103.94581 1637 ft 15 kts 201°
2026-04-25 02:02 30.57010 103.94524 1637 ft 20 kts 202°
2026-04-25 02:02 30.56881 103.94466 1637 ft 19 kts 201°
2026-04-25 02:03 30.56762 103.94410 1637 ft 15 kts 203°
2026-04-25 02:03 30.56664 103.94363 1637 ft 14 kts 202°
2026-04-25 02:03 30.56575 103.94320 1637 ft 9 kts 211°
2026-04-25 02:03 30.56565 103.94263 1637 ft 7 kts 291°
2026-04-25 02:04 30.56568 103.94257 1637 ft 0 kts 291°
2026-04-25 02:06 30.56582 103.94215 1637 ft 10 kts 291°
2026-04-25 02:06 30.56616 103.94141 1637 ft 9 kts 339°
2026-04-25 02:06 30.56682 103.94158 1637 ft 13 kts 22°
2026-04-25 02:06 30.56893 103.94260 1637 ft 68 kts 21°
2026-04-25 02:07 30.57629 103.94601 1638 ft 155 kts 22°
2026-04-25 02:07 30.58781 103.95146 2074 ft 194 kts 23°
2026-04-25 02:07 30.60062 103.95730 3040 ft 196 kts 21°
2026-04-25 02:07 30.61346 103.96303 3759 ft 207 kts 22°
2026-04-25 02:08 30.62736 103.96959 4337 ft 226 kts 22°
2026-04-25 02:08 30.64240 103.97670 4984 ft 241 kts 22°
2026-04-25 02:08 30.65843 103.98420 5572 ft 261 kts 22°
2026-04-25 02:08 30.67556 103.99218 6406 ft 270 kts 22°
2026-04-25 02:09 30.69237 104.00301 7058 ft 286 kts 43°
2026-04-25 02:09 30.70398 104.02139 8000 ft 288 kts 63°
2026-04-25 02:09 30.71273 104.04230 8927 ft 293 kts 66°
2026-04-25 02:09 30.72146 104.06393 9833 ft 298 kts 66°
2026-04-25 02:10 30.73064 104.08551 10627 ft 306 kts 64°
2026-04-25 02:10 30.74076 104.10821 11215 ft 323 kts 63°
2026-04-25 02:10 30.75146 104.13162 11783 ft 338 kts 62°
2026-04-25 02:10 30.76375 104.15577 12277 ft 355 kts 52°
2026-04-25 02:11 30.78238 104.17496 12748 ft 371 kts 30°
2026-04-25 02:11 30.80696 104.18652 13239 ft 384 kts 16°
2026-04-25 02:11 30.83252 104.19488 14096 ft 386 kts 13°
2026-04-25 02:11 30.85846 104.20279 14995 ft 387 kts 13°
2026-04-25 02:12 30.88448 104.21081 15860 ft 389 kts 13°
2026-04-25 02:12 30.91080 104.21923 16697 ft 391 kts 13°
2026-04-25 02:12 30.93705 104.22790 17484 ft 394 kts 13°
2026-04-25 02:12 30.96334 104.23676 18255 ft 397 kts 13°
2026-04-25 02:13 30.98933 104.24792 19067 ft 401 kts 24°
2026-04-25 02:13 31.01237 104.26629 19833 ft 408 kts 36°
2026-04-25 02:13 31.03221 104.29006 20608 ft 414 kts 46°
2026-04-25 02:13 31.04851 104.31835 21269 ft 424 kts 56°
2026-04-25 02:14 31.06047 104.35030 21949 ft 433 kts 66°
2026-04-25 02:14 31.06753 104.38442 22600 ft 442 kts 76°
2026-04-25 02:14 31.06973 104.42079 23111 ft 454 kts 85°
2026-04-25 02:14 31.06705 104.45739 23703 ft 463 kts 92°
2026-04-25 02:15 31.06198 104.49458 24175 ft 471 kts 95°
2026-04-25 02:15 31.05627 104.53251 24754 ft 475 kts 95°
2026-04-25 02:15 31.05095 104.57046 25285 ft 478 kts 94°
2026-04-25 02:15 31.04623 104.60927 25806 ft 482 kts 92°
2026-04-25 02:16 31.04227 104.64804 26332 ft 485 kts 91°
2026-04-25 02:16 31.03889 104.68726 26779 ft 490 kts 90°
2026-04-25 02:16 31.03597 104.72693 27259 ft 493 kts 90°
2026-04-25 02:16 31.03340 104.76668 27777 ft 496 kts 89°
2026-04-25 02:17 31.03104 104.80685 28243 ft 500 kts 89°
2026-04-25 02:17 31.02880 104.84742 28746 ft 503 kts 88°
2026-04-25 02:17 31.02645 104.88799 29392 ft 503 kts 90°
2026-04-25 02:17 31.02224 104.92854 30065 ft 504 kts 94°
2026-04-25 02:18 31.01544 104.96814 30741 ft 504 kts 99°
2026-04-25 02:18 31.00537 105.00766 31322 ft 507 kts 104°
2026-04-25 02:18 30.99299 105.04576 31827 ft 509 kts 108°
2026-04-25 02:18 30.97872 105.08421 32317 ft 511 kts 109°
2026-04-25 02:19 30.96380 105.12189 32761 ft 512 kts 110°
2026-04-25 02:19 30.94823 105.16011 33134 ft 514 kts 111°
2026-04-25 02:19 30.93279 105.19778 33157 ft 516 kts 111°
2026-04-25 02:20 30.90198 105.27302 33164 ft 512 kts 110°
2026-04-25 02:20 30.87182 105.34845 33169 ft 511 kts 108°
2026-04-25 02:21 30.85405 105.42698 33164 ft 495 kts 86°
2026-04-25 02:21 30.85515 105.46650 33164 ft 482 kts 75°
2026-04-25 02:21 30.86087 105.50499 33170 ft 478 kts 70°
2026-04-25 02:22 30.87600 105.58052 33164 ft 473 kts 67°
2026-04-25 02:22 30.89226 105.65456 33162 ft 475 kts 67°
2026-04-25 02:23 30.90863 105.72929 33157 ft 474 kts 68°
2026-04-25 02:23 30.92480 105.80446 33155 ft 473 kts 68°
2026-04-25 02:24 30.94071 105.87933 33155 ft 475 kts 68°
2026-04-25 02:24 30.95621 105.95406 33164 ft 476 kts 70°
2026-04-25 02:25 30.96087 106.03247 33154 ft 497 kts 89°
2026-04-25 02:25 30.94623 106.11256 33163 ft 507 kts 98°
2026-04-25 02:26 30.92679 106.19192 33155 ft 506 kts 100°
2026-04-25 02:26 30.90675 106.27112 33158 ft 508 kts 100°
2026-04-25 02:27 30.88683 106.34997 33161 ft 510 kts 102°
2026-04-25 02:27 30.85482 106.42481 33163 ft 523 kts 123°
2026-04-25 02:28 30.80494 106.48695 33165 ft 528 kts 134°
2026-04-25 02:28 30.75093 106.54499 33170 ft 529 kts 135°
2026-04-25 02:29 30.69605 106.60265 33169 ft 530 kts 136°
2026-04-25 02:29 30.64160 106.66018 33166 ft 529 kts 136°
2026-04-25 02:30 30.58702 106.71839 33167 ft 531 kts 135°
2026-04-25 02:30 30.53254 106.77695 33169 ft 531 kts 135°
2026-04-25 02:31 30.47839 106.83532 33182 ft 531 kts 135°
2026-04-25 02:31 30.42418 106.89372 33190 ft 531 kts 135°
2026-04-25 02:32 30.36995 106.95208 33193 ft 531 kts 136°
2026-04-25 02:32 30.31527 107.01025 33201 ft 533 kts 137°
2026-04-25 02:33 30.25970 107.06747 33200 ft 532 kts 137°
2026-04-25 02:33 30.20395 107.12426 33203 ft 533 kts 137°
2026-04-25 02:34 30.14829 107.18095 33204 ft 532 kts 137°
2026-04-25 02:34 30.09326 107.23898 33199 ft 531 kts 135°
2026-04-25 02:35 30.04027 107.29881 33203 ft 533 kts 133°
2026-04-25 02:35 29.99458 107.36518 33193 ft 527 kts 116°
2026-04-25 02:36 29.96300 107.44129 33197 ft 520 kts 106°
2026-04-25 02:36 29.93993 107.52040 33194 ft 516 kts 101°
2026-04-25 02:37 29.92008 107.59979 33216 ft 517 kts 99°
2026-04-25 02:37 29.90985 107.68070 33219 ft 501 kts 82°
2026-04-25 02:38 29.91632 107.75987 33222 ft 491 kts 72°
2026-04-25 02:38 29.93189 107.83526 33233 ft 482 kts 65°
2026-04-25 02:39 29.95135 107.90909 33244 ft 479 kts 64°
2026-04-25 02:39 29.97122 107.98313 33263 ft 478 kts 64°
2026-04-25 02:40 29.99043 108.05666 33274 ft 478 kts 65°
2026-04-25 02:40 30.00933 108.13056 33280 ft 482 kts 65°
2026-04-25 02:41 30.02795 108.20458 33272 ft 479 kts 65°
2026-04-25 02:41 30.04656 108.27900 33281 ft 477 kts 65°
2026-04-25 02:42 30.06483 108.35232 33271 ft 478 kts 66°
2026-04-25 02:42 30.08342 108.42694 33280 ft 480 kts 65°
2026-04-25 02:43 30.10175 108.50085 33288 ft 478 kts 66°
2026-04-25 02:43 30.12016 108.57475 33285 ft 479 kts 65°
2026-04-25 02:44 30.14057 108.64806 33280 ft 476 kts 63°
2026-04-25 02:44 30.16194 108.71976 33281 ft 472 kts 63°
2026-04-25 02:45 30.18363 108.79232 33278 ft 477 kts 63°
2026-04-25 02:45 30.20490 108.86461 33281 ft 472 kts 64°
2026-04-25 02:46 30.22593 108.93689 33287 ft 475 kts 64°
2026-04-25 02:46 30.24514 109.01035 33290 ft 478 kts 67°
2026-04-25 02:47 30.26299 109.08465 33272 ft 478 kts 67°
2026-04-25 02:47 30.28082 109.15931 33271 ft 477 kts 67°
2026-04-25 02:48 30.29859 109.23324 33263 ft 476 kts 67°
2026-04-25 02:48 30.31649 109.30710 33268 ft 477 kts 67°
2026-04-25 02:49 30.33456 109.38149 33265 ft 477 kts 67°
2026-04-25 02:49 30.35251 109.45524 33265 ft 478 kts 66°
2026-04-25 02:50 30.37057 109.52970 33258 ft 478 kts 67°
2026-04-25 02:50 30.38821 109.60334 33260 ft 475 kts 68°
2026-04-25 02:51 30.40221 109.67982 33269 ft 481 kts 73°
2026-04-25 02:51 30.41301 109.75688 33271 ft 481 kts 75°
2026-04-25 02:52 30.42333 109.83308 33273 ft 482 kts 74°
2026-04-25 02:52 30.43402 109.90987 33277 ft 483 kts 74°
2026-04-25 02:53 30.44493 109.98672 33279 ft 481 kts 74°
2026-04-25 02:53 30.45602 110.06382 33280 ft 482 kts 73°
2026-04-25 02:54 30.46713 110.14098 33278 ft 483 kts 73°
2026-04-25 02:54 30.47819 110.21806 33282 ft 481 kts 74°
2026-04-25 02:55 30.48920 110.29502 33282 ft 481 kts 74°
2026-04-25 02:55 30.50017 110.37205 33291 ft 484 kts 74°
2026-04-25 02:56 30.51111 110.44914 33297 ft 481 kts 73°
2026-04-25 02:56 30.52198 110.52619 33307 ft 480 kts 74°
2026-04-25 02:57 30.53278 110.60317 33301 ft 482 kts 74°
2026-04-25 02:57 30.54343 110.67934 33290 ft 481 kts 75°
2026-04-25 02:58 30.55425 110.75678 33287 ft 484 kts 75°
2026-04-25 02:58 30.56489 110.83368 33267 ft 480 kts 74°
2026-04-25 02:59 30.57553 110.91073 33245 ft 482 kts 74°
2026-04-25 02:59 30.58611 110.98759 33237 ft 483 kts 75°
2026-04-25 03:00 30.59666 111.06466 33211 ft 483 kts 74°
2026-04-25 03:00 30.60725 111.14225 33204 ft 485 kts 74°
2026-04-25 03:01 30.61772 111.21958 33179 ft 484 kts 74°
2026-04-25 03:01 30.62806 111.29639 33167 ft 481 kts 74°
2026-04-25 03:02 30.63845 111.37383 33166 ft 482 kts 74°
2026-04-25 03:02 30.64869 111.45047 33159 ft 483 kts 74°
2026-04-25 03:03 30.65691 111.52837 33164 ft 484 kts 79°
2026-04-25 03:03 30.66097 111.60716 33163 ft 489 kts 81°
2026-04-25 03:04 30.66412 111.68602 33159 ft 487 kts 81°
2026-04-25 03:04 30.66752 111.76498 33166 ft 488 kts 81°
2026-04-25 03:05 30.67310 111.88356 33159 ft 487 kts 80°
2026-04-25 03:05 30.67692 111.96202 33161 ft 487 kts 80°
2026-04-25 03:06 30.68160 112.04073 33158 ft 486 kts 79°
2026-04-25 03:06 30.68712 112.11858 33159 ft 487 kts 79°
2026-04-25 03:07 30.69276 112.19727 33161 ft 487 kts 78°
2026-04-25 03:07 30.69818 112.27534 33159 ft 486 kts 79°
2026-04-25 03:08 30.70351 112.35391 33151 ft 486 kts 79°
2026-04-25 03:08 30.70873 112.43245 33168 ft 487 kts 79°
2026-04-25 03:09 30.71384 112.51063 33160 ft 486 kts 79°
2026-04-25 03:09 30.71890 112.58901 33156 ft 487 kts 79°
2026-04-25 03:10 30.72391 112.66714 33162 ft 485 kts 80°
2026-04-25 03:10 30.72898 112.74648 33157 ft 487 kts 80°
2026-04-25 03:11 30.73393 112.82508 33171 ft 489 kts 80°
2026-04-25 03:11 30.73884 112.90352 33170 ft 487 kts 80°
2026-04-25 03:12 30.74369 112.98215 33166 ft 489 kts 80°
2026-04-25 03:12 30.74850 113.06087 33174 ft 489 kts 80°
2026-04-25 03:13 30.75326 113.13978 33174 ft 488 kts 80°
2026-04-25 03:13 30.75664 113.21916 33169 ft 490 kts 82°
2026-04-25 03:14 30.75839 113.29802 33171 ft 489 kts 83°
2026-04-25 03:14 30.75994 113.37708 33173 ft 490 kts 83°
2026-04-25 03:15 30.76161 113.45631 33167 ft 490 kts 83°
2026-04-25 03:15 30.76339 113.53537 33172 ft 490 kts 83°
2026-04-25 03:16 30.76521 113.61485 33146 ft 490 kts 83°
2026-04-25 03:16 30.76704 113.69450 33156 ft 492 kts 84°
2026-04-25 03:17 30.76880 113.77386 33163 ft 491 kts 84°
2026-04-25 03:17 30.77052 113.85297 33148 ft 491 kts 84°
2026-04-25 03:18 30.77219 113.93224 33149 ft 490 kts 84°
2026-04-25 03:18 30.77383 114.01141 33155 ft 489 kts 84°
2026-04-25 03:19 30.77627 114.09032 33160 ft 489 kts 83°
2026-04-25 03:19 30.78066 114.16878 33167 ft 486 kts 78°
2026-04-25 03:20 30.79578 114.24486 33167 ft 478 kts 68°
2026-04-25 03:20 30.81810 114.31767 33166 ft 478 kts 64°
2026-04-25 03:21 30.84196 114.38985 33163 ft 477 kts 64°
2026-04-25 03:21 30.86563 114.46170 33151 ft 475 kts 64°
2026-04-25 03:22 30.88919 114.53361 33169 ft 475 kts 64°
2026-04-25 03:22 30.91278 114.60581 33156 ft 476 kts 64°
2026-04-25 03:23 30.93629 114.67807 33164 ft 475 kts 65°
2026-04-25 03:23 30.95949 114.74979 33156 ft 474 kts 65°
2026-04-25 03:24 30.98267 114.82162 33161 ft 474 kts 65°
2026-04-25 03:24 31.00589 114.89383 33162 ft 473 kts 66°
2026-04-25 03:25 31.02891 114.96556 33168 ft 473 kts 66°
2026-04-25 03:25 31.05188 115.03734 33144 ft 472 kts 66°
2026-04-25 03:26 31.07476 115.10900 33177 ft 472 kts 66°
2026-04-25 03:26 31.09790 115.18161 33200 ft 474 kts 66°
2026-04-25 03:27 31.12092 115.25415 33203 ft 473 kts 66°
2026-04-25 03:27 31.14369 115.32592 33209 ft 473 kts 66°
2026-04-25 03:28 31.16695 115.39788 33197 ft 471 kts 66°
2026-04-25 03:28 31.19034 115.46994 33203 ft 472 kts 66°
2026-04-25 03:29 31.21351 115.54144 33222 ft 474 kts 66°
2026-04-25 03:29 31.23682 115.61372 33210 ft 473 kts 67°
2026-04-25 03:30 31.26010 115.68615 33229 ft 473 kts 68°
2026-04-25 03:30 31.28301 115.75765 33231 ft 471 kts 68°
2026-04-25 03:31 31.30602 115.82964 33220 ft 471 kts 68°
2026-04-25 03:31 31.32895 115.90147 33223 ft 471 kts 68°
2026-04-25 03:32 31.35229 115.97341 33213 ft 471 kts 67°
2026-04-25 03:32 31.37551 116.04447 33215 ft 469 kts 68°
2026-04-25 03:33 31.39890 116.11616 33208 ft 471 kts 68°
2026-04-25 03:33 31.42215 116.18764 33205 ft 470 kts 68°
2026-04-25 03:34 31.44534 116.25923 33219 ft 471 kts 68°
2026-04-25 03:34 31.46856 116.33115 33202 ft 471 kts 68°
2026-04-25 03:35 31.49166 116.40285 33205 ft 472 kts 68°
2026-04-25 03:35 31.51474 116.47459 33194 ft 472 kts 68°
2026-04-25 03:36 31.53776 116.54628 33183 ft 472 kts 68°
2026-04-25 03:36 31.56090 116.61845 33183 ft 470 kts 68°
2026-04-25 03:37 31.58383 116.69022 33198 ft 472 kts 69°
2026-04-25 03:37 31.60676 116.76222 32995 ft 472 kts 69°
2026-04-25 03:38 31.61817 116.79813 32778 ft 469 kts 69°
2026-04-25 03:38 31.62940 116.83354 32544 ft 466 kts 69°
2026-04-25 03:38 31.64071 116.86919 32303 ft 467 kts 69°
2026-04-25 03:38 31.65206 116.90500 32056 ft 469 kts 69°
2026-04-25 03:39 31.66344 116.94093 31821 ft 468 kts 70°
2026-04-25 03:39 31.67469 116.97646 31588 ft 467 kts 70°
2026-04-25 03:39 31.68604 117.01238 31343 ft 466 kts 70°
2026-04-25 03:39 31.69732 117.04839 31095 ft 467 kts 70°
2026-04-25 03:40 31.70841 117.08407 30827 ft 465 kts 70°
2026-04-25 03:40 31.71939 117.11960 30208 ft 463 kts 70°
2026-04-25 03:40 31.72967 117.15557 29184 ft 467 kts 73°
2026-04-25 03:40 31.73700 117.19260 28175 ft 470 kts 79°
2026-04-25 03:41 31.74067 117.23055 27213 ft 471 kts 86°
2026-04-25 03:41 31.74037 117.26857 26551 ft 465 kts 93°
2026-04-25 03:41 31.73692 117.30589 25915 ft 459 kts 98°
2026-04-25 03:41 31.73013 117.34216 25249 ft 454 kts 105°
2026-04-25 03:42 31.71957 117.37690 24552 ft 449 kts 112°
2026-04-25 03:42 31.70622 117.40968 23873 ft 445 kts 117°
2026-04-25 03:42 31.69067 117.44078 23183 ft 441 kts 122°
2026-04-25 03:42 31.67393 117.47026 22505 ft 437 kts 124°
2026-04-25 03:43 31.65636 117.49935 21820 ft 433 kts 125°
2026-04-25 03:43 31.63929 117.52782 21140 ft 429 kts 123°
2026-04-25 03:43 31.62518 117.55826 20459 ft 425 kts 111°
2026-04-25 03:43 31.61740 117.59140 19818 ft 419 kts 98°
2026-04-25 03:44 31.61524 117.62505 19165 ft 414 kts 88°
2026-04-25 03:44 31.61661 117.65854 18500 ft 409 kts 84°
2026-04-25 03:44 31.61925 117.69154 17822 ft 406 kts 83°
2026-04-25 03:44 31.62244 117.72417 17149 ft 402 kts 82°
2026-04-25 03:45 31.62582 117.75658 16486 ft 399 kts 82°
2026-04-25 03:45 31.62916 117.78853 15840 ft 395 kts 82°
2026-04-25 03:45 31.63239 117.81996 15199 ft 391 kts 82°
2026-04-25 03:45 31.63558 117.85169 14549 ft 388 kts 82°
2026-04-25 03:46 31.63865 117.88280 13903 ft 384 kts 83°
2026-04-25 03:46 31.64166 117.91363 13270 ft 380 kts 83°
2026-04-25 03:46 31.64461 117.94402 12647 ft 376 kts 82°
2026-04-25 03:46 31.64756 117.97461 12015 ft 373 kts 83°
2026-04-25 03:47 31.65045 118.00461 11390 ft 369 kts 83°
2026-04-25 03:47 31.65329 118.03427 10858 ft 363 kts 83°
2026-04-25 03:47 31.65602 118.06284 10623 ft 349 kts 83°
2026-04-25 03:47 31.65863 118.09028 10503 ft 332 kts 83°
2026-04-25 03:48 31.66115 118.11684 10365 ft 318 kts 83°
2026-04-25 03:48 31.66352 118.14182 10227 ft 305 kts 83°
2026-04-25 03:48 31.66582 118.16631 10053 ft 294 kts 84°
2026-04-25 03:48 31.66698 118.19005 9695 ft 291 kts 87°
2026-04-25 03:49 31.66726 118.21379 9311 ft 289 kts 89°
2026-04-25 03:49 31.66720 118.23706 8953 ft 287 kts 89°
2026-04-25 03:49 31.66713 118.26026 8598 ft 284 kts 89°
2026-04-25 03:49 31.66711 118.28337 8246 ft 281 kts 89°
2026-04-25 03:50 31.66716 118.30609 7905 ft 279 kts 89°
2026-04-25 03:50 31.66723 118.32886 7553 ft 276 kts 89°
2026-04-25 03:50 31.66730 118.35128 7231 ft 273 kts 89°
2026-04-25 03:50 31.66737 118.37299 7100 ft 262 kts 89°
2026-04-25 03:51 31.66743 118.39381 7029 ft 250 kts 89°
2026-04-25 03:51 31.66715 118.41383 6952 ft 239 kts 94°
2026-04-25 03:51 31.66356 118.43271 6723 ft 235 kts 111°
2026-04-25 03:51 31.65662 118.44984 6455 ft 234 kts 116°
2026-04-25 03:52 31.64927 118.46673 6204 ft 232 kts 116°
2026-04-25 03:52 31.64226 118.48369 5944 ft 230 kts 114°
2026-04-25 03:52 31.63555 118.50060 5690 ft 228 kts 114°
2026-04-25 03:52 31.62890 118.51757 5441 ft 226 kts 114°
2026-04-25 03:53 31.62233 118.53434 5245 ft 221 kts 114°
2026-04-25 03:53 31.61605 118.55034 5184 ft 211 kts 114°
2026-04-25 03:53 31.61002 118.56570 5137 ft 210 kts 113°
2026-04-25 03:53 31.60406 118.58175 5075 ft 213 kts 108°
2026-04-25 03:54 31.60212 118.59868 4983 ft 212 kts 79°
2026-04-25 03:54 31.60811 118.61449 4771 ft 214 kts 56°
2026-04-25 03:54 31.61675 118.62876 4526 ft 213 kts 55°
2026-04-25 03:54 31.62495 118.64291 4295 ft 212 kts 58°
2026-04-25 03:55 31.63296 118.65763 3924 ft 218 kts 59°
2026-04-25 03:55 31.64114 118.67296 3472 ft 227 kts 59°
2026-04-25 03:55 31.64961 118.68879 3040 ft 233 kts 59°
2026-04-25 03:55 31.65825 118.70488 2749 ft 232 kts 59°
2026-04-25 03:56 31.66677 118.72088 2479 ft 229 kts 59°
2026-04-25 03:56 31.67505 118.73679 2177 ft 221 kts 59°
2026-04-25 03:56 31.68279 118.75140 1894 ft 205 kts 59°
2026-04-25 03:56 31.69019 118.76521 1628 ft 191 kts 60°
2026-04-25 03:57 31.69698 118.77787 1390 ft 178 kts 59°
2026-04-25 03:57 31.70332 118.78970 1172 ft 163 kts 59°
2026-04-25 03:57 31.70906 118.80039 943 ft 149 kts 59°
2026-04-25 03:57 31.71436 118.81026 763 ft 136 kts 59°
2026-04-25 03:58 31.71930 118.81950 596 ft 134 kts 59°
2026-04-25 03:58 31.72432 118.82863 407 ft 132 kts 58°
2026-04-25 03:58 31.72932 118.83789 229 ft 135 kts 60°
2026-04-25 03:58 31.73428 118.84719 87 ft 135 kts 60°
2026-04-25 03:59 31.73877 118.85564 56 ft 79 kts 57°
2026-04-25 03:59 31.73932 118.85664 56 ft 0 kts 58°
2026-04-25 03:59 31.73961 118.85718 56 ft 20 kts 58°
2026-04-25 03:59 31.74067 118.85916 56 ft 29 kts 58°
2026-04-25 04:00 31.74175 118.86117 56 ft 28 kts 58°
2026-04-25 04:00 31.74175 118.86231 56 ft 14 kts 149°
2026-04-25 04:00 31.74090 118.86292 56 ft 13 kts 148°
2026-04-25 04:00 31.74011 118.86348 56 ft 12 kts 162°
2026-04-25 04:01 31.73951 118.86298 56 ft 11 kts 237°
2026-04-25 04:01 31.73910 118.86222 56 ft 10 kts 238°
2026-04-25 04:01 31.73871 118.86148 56 ft 10 kts 238°
2026-04-25 04:01 31.73833 118.86078 56 ft 10 kts 238°
2026-04-25 04:02 31.73797 118.86010 56 ft 9 kts 238°
2026-04-25 04:02 31.73764 118.85945 56 ft 9 kts 238°
2026-04-25 04:02 31.73719 118.85901 56 ft 8 kts 183°
2026-04-25 04:02 31.73670 118.85931 56 ft 7 kts 146°
2026-04-25 04:03 31.73625 118.85963 56 ft 7 kts 148°
2026-04-25 04:03 31.73582 118.85995 56 ft 7 kts 148°
2026-04-25 04:03 31.73542 118.86025 56 ft 6 kts 148°
2026-04-25 04:03 31.73504 118.86052 56 ft 6 kts 148°
2026-04-25 04:04 31.73453 118.86089 56 ft 12 kts 148°
2026-04-25 04:04 31.73356 118.86159 56 ft 20 kts 147°
2026-04-25 04:04 31.73216 118.86263 56 ft 23 kts 148°
2026-04-25 04:04 31.73077 118.86365 56 ft 23 kts 148°
2026-04-25 04:05 31.72940 118.86464 56 ft 22 kts 147°
2026-04-25 04:05 31.72807 118.86562 56 ft 22 kts 147°
2026-04-25 04:05 31.72717 118.86632 56 ft 10 kts 127°
2026-04-25 04:05 31.72752 118.86694 56 ft 9 kts 56°
2026-04-25 04:06 31.72793 118.86768 56 ft 14 kts 58°
2026-04-25 04:06 31.72851 118.86878 56 ft 15 kts 58°
2026-04-25 04:06 31.72906 118.86980 56 ft 14 kts 58°
2026-04-25 04:06 31.72958 118.87077 56 ft 12 kts 58°
2026-04-25 04:07 31.73010 118.87119 56 ft 8 kts 344°
2026-04-25 04:07 31.73045 118.87096 56 ft 8 kts 328°
2026-04-25 04:07 31.73078 118.87072 56 ft 0 kts 328°